Weather History for Hamilton, OH

Change the Weather History Date:

Monday, July 1, 2013

  Actual Average (KCVG) Record (KCVG)
Temperature  
Mean Temperature 71 °F 75 °F  
Max Temperature 79 °F 85 °F 98 °F (1970)
Min Temperature 64 °F 65 °F 47 °F (2008)
Degree Days  
Heating Degree Days 0 0  
Month to date heating degree days 0  
Since 1 June heating degree days 15  
Since 1 July heating degree days 0  
Cooling Degree Days 6 10  
Month to date cooling degree days 10  
Year to date cooling degree days 330  
Since 1 June cooling degree days 236  
Growing Degree Days 21 (Base 50)    
Moisture  
Dew Point 64 °F    
Average Humidity 85    
Maximum Humidity 94    
Minimum Humidity 69    
Precipitation  
Precipitation 0.99 in 0.12 in 1.81 in (1987)
Month to date precipitation 0.12  
Year to date precipitation 22.74  
Snow  
Snow 0.00 in 0.00 in 0.00 in ()
Month to date snowfall 0.0  
Since 1 June snowfall 0.0  
Since 1 July snowfall 0.0  
Snow Depth -    
Sea Level Pressure  
Sea Level Pressure 29.90 in    
Wind  
Wind Speed 5 mph (NNE)    
Max Wind Speed 22 mph    
Max Gust Speed 36 mph    
Visibility 8 miles    
Events Fog , Rain , Thunderstorm    
T = Trace of Precipitation, MM = Missing Value Source: NWS Daily Summary

Daily Weather History Graph

Daily Weather History Graph

Search for Another Location

Airport:

Trip Planner

Search our weather history database for the weather conditions in past years. The results will help you decide how hot, cold, wet, or windy it might be!

Date:

Astronomy

Jul. 01, 2013 Rise Set
Actual Time 6:15 AM EDT 9:08 PM EDT
Civil Twilight 5:42 AM EDT 9:40 PM EDT
Nautical Twilight 5:02 AM EDT 10:21 PM EDT
Astronomical Twilight 4:15 AM EDT 11:08 PM EDT
Moon 1:43 AM EDT (7/1) 3:24 PM EDT (7/1)
Length of Visible Light 15h 58m
Length of Day
14h 53m
Waning Crescent, 35% of the Moon is Illuminated
Jul 1
Waning Crescent
Jul 8
New
Jul 15
First Quarter
Jul 22
Full
Jul 29
Last Quarter

Hourly Weather History & Observations

Time (EDT) Temp. Dew Point Humidity Pressure Visibility Wind Dir Wind Speed Gust Speed Precip Events Conditions
12:53 AM 68.0 °F 64.9 °F 90% 29.84 in 10.0 mi NNE 3.5 mph - N/A   Partly Cloudy
1:53 AM 68.0 °F 63.0 °F 84% 29.85 in 10.0 mi Calm Calm - N/A   Clear
2:53 AM 66.9 °F 62.1 °F 84% 29.84 in 10.0 mi North 3.5 mph - N/A   Mostly Cloudy
3:53 AM 64.9 °F 61.0 °F 87% 29.83 in 10.0 mi NNW 3.5 mph - N/A   Clear
4:53 AM 64.9 °F 60.1 °F 84% 29.85 in 10.0 mi Calm Calm - N/A   Clear
5:53 AM 64.9 °F 61.0 °F 87% 29.86 in 10.0 mi Calm Calm - N/A   Scattered Clouds
6:53 AM 66.0 °F 61.0 °F 84% 29.86 in 10.0 mi Calm Calm - N/A   Mostly Cloudy
7:02 AM 66.2 °F 62.6 °F 88% 29.87 in 10.0 mi Calm Calm - N/A   Mostly Cloudy
7:53 AM 66.9 °F 62.1 °F 84% 29.88 in 10.0 mi NE 4.6 mph - N/A   Overcast
8:53 AM 69.1 °F 63.0 °F 81% 29.88 in 10.0 mi NE 5.8 mph - N/A   Overcast
9:53 AM 72.0 °F 64.9 °F 78% 29.89 in 10.0 mi ENE 5.8 mph - N/A   Overcast
10:53 AM 73.0 °F 64.9 °F 76% 29.89 in 10.0 mi NE 5.8 mph - N/A   Overcast
11:53 AM 73.9 °F 66.0 °F 76% 29.89 in 9.0 mi NE 4.6 mph - N/A   Overcast
12:53 PM 75.0 °F 66.0 °F 73% 29.88 in 9.0 mi NE 5.8 mph - N/A   Overcast
1:14 PM 75.2 °F 66.2 °F 73% 29.90 in 9.0 mi NNE 5.8 mph - N/A   Overcast
1:53 PM 78.1 °F 68.0 °F 71% 29.87 in 9.0 mi North 8.1 mph - N/A   Mostly Cloudy
2:20 PM 75.2 °F 64.4 °F 69% 29.88 in 8.0 mi NNE 9.2 mph - N/A Thunderstorm Overcast
2:35 PM 75.2 °F 64.4 °F 69% 29.88 in 8.0 mi NE 8.1 mph - N/A   Overcast
2:49 PM 75.2 °F 66.2 °F 73% 29.88 in 6.0 mi North 9.2 mph - 0.00 in Rain , Thunderstorm Light Rain
2:53 PM 75.0 °F 66.0 °F 73% 29.87 in 6.0 mi North 6.9 mph - 0.00 in Rain , Thunderstorm Light Rain
3:25 PM 69.8 °F 62.6 °F 78% 29.92 in 1.5 mi ESE 21.9 mph 35.7 mph 0.13 in Rain , Thunderstorm Light Rain
3:29 PM 64.4 °F 62.6 °F 94% 29.92 in 0.5 mi East 20.7 mph 35.7 mph 0.34 in Fog , Rain , Thunderstorm Heavy Rain
3:49 PM 64.4 °F 62.6 °F 94% 29.91 in 1.5 mi ENE 11.5 mph - 0.70 in Rain , Thunderstorm Heavy Thunderstorms and Rain
3:51 PM 64.4 °F 62.6 °F 94% 29.91 in 2.0 mi NE 9.2 mph - 0.70 in Rain , Thunderstorm Heavy Thunderstorms and Rain
3:53 PM 64.9 °F 63.0 °F 93% 29.91 in 2.5 mi NNE 6.9 mph - 0.70 in Rain , Thunderstorm Thunderstorms and Rain
3:56 PM 64.4 °F 62.6 °F 94% 29.92 in 4.0 mi North 8.1 mph - 0.00 in Rain , Thunderstorm Light Thunderstorms and Rain
4:41 PM 66.2 °F 62.6 °F 88% 29.91 in 10.0 mi North 4.6 mph - 0.00 in   Mostly Cloudy
4:53 PM 66.9 °F 64.0 °F 90% 29.91 in 10.0 mi North 3.5 mph - 0.00 in   Overcast
5:53 PM 69.1 °F 66.0 °F 90% 29.89 in 9.0 mi NE 4.6 mph - 0.00 in Rain Light Rain
6:53 PM 71.1 °F 66.9 °F 87% 29.90 in 10.0 mi ENE 5.8 mph - 0.00 in   Scattered Clouds
7:53 PM 70.0 °F 66.9 °F 90% 29.91 in 10.0 mi NE 6.9 mph - N/A   Partly Cloudy
8:06 PM 69.8 °F 66.2 °F 88% 29.91 in 10.0 mi NNE 8.1 mph - N/A   Mostly Cloudy
8:14 PM 69.8 °F 66.2 °F 88% 29.91 in 10.0 mi NNE 9.2 mph - N/A   Scattered Clouds
8:53 PM 70.0 °F 66.0 °F 87% 29.91 in 9.0 mi North 5.8 mph - N/A   Scattered Clouds
9:33 PM 69.8 °F 66.2 °F 88% 29.93 in 9.0 mi North 4.6 mph - N/A   Mostly Cloudy
9:53 PM 69.1 °F 64.9 °F 87% 29.92 in 9.0 mi NNE 9.2 mph - 0.00 in Rain Light Rain
10:01 PM 69.8 °F 64.4 °F 83% 29.93 in 7.0 mi NNE 8.1 mph - 0.01 in Rain Light Rain
10:10 PM 68.0 °F 64.4 °F 88% 29.93 in 6.0 mi NNE 6.9 mph - 0.03 in Rain , Thunderstorm Rain
10:27 PM 68.0 °F 64.4 °F 88% 29.94 in 5.0 mi North 3.5 mph - 0.07 in Rain Rain
10:37 PM 68.0 °F 64.4 °F 88% 29.95 in 5.0 mi Calm Calm - 0.09 in Rain Rain
10:53 PM 66.9 °F 64.9 °F 93% 29.94 in 4.0 mi NNE 4.6 mph - 0.13 in Rain Rain
11:06 PM 66.2 °F 64.4 °F 94% 29.95 in 4.0 mi NNE 5.8 mph - 0.05 in Rain , Thunderstorm Heavy Rain
11:21 PM 66.2 °F 64.4 °F 94% 29.94 in 4.0 mi NE 6.9 mph - 0.10 in Rain Heavy Rain
11:53 PM 66.9 °F 64.9 °F 93% 29.93 in 6.0 mi NE 8.1 mph - 0.16 in Rain Light Rain